Miscellaneous Local Product
Issued by NWS Hastings, NE

Home | Current Version | Previous Version | Graphics & Text | Print | Product List | Glossary On
Versions: 1 2 3 4 5 6 7 8 9 10 11 12 13 14 15 16 17 18 19 20 21 22 23 24 25 26 27 28 29 30 31 32 33 34 35 36 37 38 39 40 41 42 43 44 45 46 47 48 49 50
704
AXUS43 KGID 132002
MISGRI

GID CWA HOURLY WEATHER ROUNDUP
NATIONAL WEATHER SERVICE HASTINGS NE
200 PM CST WED DEC 13 2017

NOTE: "FAIR" INDICATES FEW OR NO CLOUDS BELOW 12,000 FEET WITH NO
SIGNIFICANT WEATHER AND/OR OBSTRUCTIONS TO VISIBILITY.

...SOUTH CENTRAL NEBRASKA...

CITY           SKY/WX    TMP DP  RH WIND       PRES   REMARKS
GRAND ISLAND   SUNNY     52  25  35 NW28G33   29.89R
KEARNEY        SUNNY     52  22  30 NW23G31   29.90F
HASTINGS       SUNNY     53  22  29 NW28G37   29.88F
ORD            SUNNY     50  26  39 NW28G36   29.88S
YORK           SUNNY     52  27  37 NW24G30   29.85S
AURORA         SUNNY     52  25  35 NW29G36   29.88R
LEXINGTON      SUNNY     53  20  27 NW28G36   29.93S
HOLDREGE       SUNNY     52  24  32 N21G31    29.91F
HEBRON         SUNNY     55  24  29 N20G32    29.86S

...NEBRASKA PANHANDLE...

CITY           SKY/WX    TMP DP  RH WIND       PRES   REMARKS
CHADRON        SUNNY     49  17  28 NW18G28   30.01F
ALLIANCE       SUNNY     48  16  27 N26G35    29.99F
SCOTTSBLUFF    SUNNY     50  15  24 NW22G29   30.04F
SIDNEY         SUNNY     49  14  24 N26G36    30.02F

...WESTERN AND NORTH CENTRAL NEBRASKA...

CITY           SKY/WX    TMP DP  RH WIND       PRES   REMARKS
VALENTINE      SUNNY     48  25  40 NW23G36   29.93F
AINSWORTH      SUNNY     45  28  50 NW24G30   29.92F
ONEILL         SUNNY     47  30  51 NW26G36   29.87F
BROKEN BOW     SUNNY     50  24  36 NW23G32   29.92S
IMPERIAL       SUNNY     53  15  22 NW25G33   29.99F
NORTH PLATTE   SUNNY     50  15  24 N25G37    29.95F
MCCOOK         SUNNY     55  16  21 N29G41    29.95F

...EASTERN NEBRASKA...

CITY           SKY/WX    TMP DP  RH WIND       PRES   REMARKS
NORFOLK        SUNNY     47  29  49 NW29G37   29.80F
SO SIOUX CITY  CLOUDY    42  30  62 NW26G40   29.78R
TEKAMAH        MOSUNNY   48  29  47 NW28G40   29.80R
COLUMBUS       SUNNY     50  28  42 NW28G35   29.83
ALBION         SUNNY     49  28  44 NW25G35   29.86R
OMAHA EPPLEY   MOSUNNY   51  29  42 NW24G35   29.76R
OFFUTT AFB     SUNNY     51  29  42 NW30G38   29.76S
MILLARD        SUNNY     52  31  44 NW20G32   29.79R
LINCOLN        SUNNY     54  28  36 NW25G36   29.83S
NEBRASKA CITY  SUNNY     53  31  42 NW24G36   29.78S
BEATRICE       SUNNY     55  28  36 NW29G38   29.83S
FALLS CITY     SUNNY     56  27  32 NW23G37   29.77R

...NORTHERN KANSAS...

CITY           SKY/WX    TMP DP  RH WIND       PRES   REMARKS
GOODLAND       SUNNY     55  14  19 N26G43    29.97F
HILL CITY      SUNNY     59  16  18 N29G39    29.94F
NORTON         CLEAR     55   5  13 NW26G35   29.93F
PHILLIPSBURG   SUNNY     59  18  20 NW18G30   29.91F
SMITH CENTER   SUNNY     55  23  28 NW23G32   29.90F
HAYS           SUNNY     60  23  24 NW30G36   29.91F
RUSSELL        SUNNY     61  24  24 N24G33    29.89F
CONCORDIA      SUNNY     57  23  26 N26G36    29.86F
SALINA         SUNNY     63  24  22 NW24G31   29.86F
TOPEKA         SUNNY     61  27  27 NW29G38   29.78S



USA.gov is the U.S. government's official web portal to all federal, state and local government web resources and services.